Year,Month,Day,Hour,Minute,Value (Times are PST for temperature in C)
2007,05,17,06,26,4.70
2007,05,17,07,04,5.60
2007,05,17,07,05,5.70
2007,05,17,07,08,5.70
2007,05,17,07,15,5.80
2007,05,17,07,46,6.70
2007,05,17,07,47,6.70
2007,05,17,07,48,6.70
2007,05,17,07,49,6.80
2007,05,17,07,50,6.80
2007,05,17,07,51,6.80
2007,05,17,07,52,6.80
2007,05,17,07,53,6.90
2007,05,17,07,55,7.00
2007,05,17,07,56,7.10
2007,05,17,07,57,7.10
2007,05,17,07,58,7.20
2007,05,17,08,02,7.30
2007,05,17,08,11,7.70
2007,05,17,08,13,7.80
2007,05,17,08,15,7.80
2007,05,17,08,16,7.80
2007,05,17,08,17,7.80
2007,05,17,08,18,7.80
2007,05,17,08,20,7.80
2007,05,17,08,21,7.80
2007,05,17,08,22,7.80
2007,05,17,08,23,7.80
2007,05,17,08,24,7.80
2007,05,17,08,25,7.80
2007,05,17,08,26,7.90
2007,05,17,08,27,7.90
2007,05,17,08,28,7.90
2007,05,17,08,29,7.90
2007,05,17,08,30,8.00
2007,05,17,08,31,8.00
2007,05,17,08,32,8.10
2007,05,17,08,33,8.10
2007,05,17,08,34,8.20
2007,05,17,08,35,8.20
2007,05,17,08,36,8.20
2007,05,17,08,37,8.30
2007,05,17,08,38,8.30
2007,05,17,08,39,8.40
2007,05,17,08,40,8.40
2007,05,17,08,42,8.40
2007,05,17,08,43,8.50
2007,05,17,08,44,8.50
2007,05,17,08,45,8.40
2007,05,17,08,46,8.40
2007,05,17,08,47,8.40
2007,05,17,08,48,8.40
2007,05,17,08,50,8.40
2007,05,17,08,51,8.40
2007,05,17,08,52,8.50
2007,05,17,08,53,8.50
2007,05,17,08,54,8.60
2007,05,17,08,57,8.70
2007,05,17,09,00,8.70
2007,05,17,09,01,8.80
2007,05,17,09,02,8.90
2007,05,17,09,03,8.90
2007,05,17,09,04,9.00
2007,05,17,09,05,9.00
2007,05,17,09,06,9.00
2007,05,17,09,07,9.00
2007,05,17,09,08,9.00
2007,05,17,09,09,9.00
2007,05,17,09,10,9.00
2007,05,17,09,11,9.10
2007,05,17,09,12,9.10
2007,05,17,09,13,9.20
2007,05,17,09,14,9.20
2007,05,17,09,15,9.20
2007,05,17,09,16,9.20
2007,05,17,09,18,9.30
2007,05,17,09,19,9.30
2007,05,17,09,20,9.30
2007,05,17,09,21,9.40
2007,05,17,09,22,9.40
2007,05,17,09,23,9.50
2007,05,17,09,24,9.50
2007,05,17,09,25,9.50
2007,05,17,09,26,9.50
2007,05,17,09,27,9.50
2007,05,17,09,28,9.40
2007,05,17,09,29,9.40
2007,05,17,09,30,9.50
2007,05,17,09,31,9.50
2007,05,17,09,32,9.60
2007,05,17,09,33,9.70
2007,05,17,09,34,9.70
2007,05,17,09,35,9.80
2007,05,17,09,36,9.90
2007,05,17,09,37,9.90
2007,05,17,09,38,10.10
2007,05,17,09,39,10.20
2007,05,17,09,40,10.30
2007,05,17,09,41,10.30
2007,05,17,09,42,10.40
2007,05,17,09,43,10.40
2007,05,17,09,44,10.40
2007,05,17,09,45,10.60
2007,05,17,09,46,10.60
2007,05,17,09,47,10.60
2007,05,17,09,48,10.60
2007,05,17,09,49,10.60
2007,05,17,09,50,10.60
2007,05,17,09,51,10.70
2007,05,17,09,52,10.70
2007,05,17,09,53,10.70
2007,05,17,09,54,10.60
2007,05,17,09,55,10.60
2007,05,17,09,56,10.60
2007,05,17,09,57,10.60
2007,05,17,09,58,10.60
2007,05,17,09,59,10.60
2007,05,17,10,00,10.60
2007,05,17,10,01,10.70
2007,05,17,10,02,10.70
2007,05,17,10,03,10.70
2007,05,17,10,04,10.70
2007,05,17,10,05,10.70
2007,05,17,10,06,10.70
2007,05,17,10,07,10.70
2007,05,17,10,08,10.80
2007,05,17,10,09,10.80
2007,05,17,10,10,10.90
2007,05,17,10,11,10.90
2007,05,17,10,12,10.90
2007,05,17,10,13,10.90
2007,05,17,10,14,10.90
2007,05,17,10,15,11.10
2007,05,17,10,16,11.10
2007,05,17,10,17,11.10
2007,05,17,10,18,11.10
2007,05,17,10,19,11.20
2007,05,17,10,20,11.30
2007,05,17,10,21,11.40
2007,05,17,10,22,11.40
2007,05,17,10,23,11.40
2007,05,17,10,24,11.40
2007,05,17,10,25,11.40
2007,05,17,10,26,11.40
2007,05,17,10,27,11.40
2007,05,17,10,28,11.40
2007,05,17,10,29,11.30
2007,05,17,10,30,11.30
2007,05,17,10,31,11.30
2007,05,17,10,32,11.30
2007,05,17,10,33,11.30
2007,05,17,10,34,11.30
2007,05,17,10,35,11.30
2007,05,17,10,36,11.40
2007,05,17,10,37,11.40
2007,05,17,10,38,11.40
2007,05,17,10,39,11.60
2007,05,17,10,40,11.60
2007,05,17,10,41,11.60
2007,05,17,10,42,11.70
2007,05,17,10,43,11.80
2007,05,17,10,44,11.80
2007,05,17,10,45,12.00
2007,05,17,10,46,12.10
2007,05,17,10,47,12.20
2007,05,17,10,48,12.30
2007,05,17,10,49,12.40
2007,05,17,10,50,12.50
2007,05,17,10,51,12.60
2007,05,17,10,52,12.60
2007,05,17,10,53,12.70
2007,05,17,10,54,12.70
2007,05,17,10,55,12.70
2007,05,17,10,56,12.70
2007,05,17,10,57,12.70
2007,05,17,10,58,12.80
2007,05,17,10,59,12.80
2007,05,17,11,00,12.80
2007,05,17,11,01,12.90
2007,05,17,11,02,13.00
2007,05,17,11,03,13.10
2007,05,17,11,04,13.20
2007,05,17,11,05,13.20
2007,05,17,11,06,13.30
2007,05,17,11,07,13.30
2007,05,17,11,08,13.30
2007,05,17,11,09,13.40
2007,05,17,11,10,13.50
2007,05,17,11,11,13.50
2007,05,17,11,12,13.60
2007,05,17,11,13,13.60
2007,05,17,11,14,13.70
2007,05,17,11,15,13.70
2007,05,17,11,16,13.80
2007,05,17,11,17,13.90
2007,05,17,11,18,13.90
2007,05,17,11,19,14.00
2007,05,17,11,20,14.00
2007,05,17,11,21,14.10
2007,05,17,11,22,14.10
2007,05,17,11,23,14.00
2007,05,17,11,24,14.00
2007,05,17,11,25,13.90
2007,05,17,11,26,13.90
2007,05,17,11,27,13.90
2007,05,17,11,28,13.90
2007,05,17,11,29,13.90
2007,05,17,11,30,13.90
2007,05,17,11,31,14.00
2007,05,17,11,32,14.00
2007,05,17,11,33,14.10
2007,05,17,11,34,14.10
2007,05,17,11,35,14.20
2007,05,17,11,36,14.20
2007,05,17,11,37,14.20
2007,05,17,11,38,14.20
2007,05,17,11,39,14.20
2007,05,17,11,40,14.20
2007,05,17,11,41,14.30
2007,05,17,11,42,14.30
2007,05,17,11,43,14.30
2007,05,17,11,44,14.40
2007,05,17,11,45,14.40
2007,05,17,11,46,14.40
2007,05,17,11,47,14.50
2007,05,17,11,48,14.50
2007,05,17,11,49,14.50
2007,05,17,11,50,14.60
2007,05,17,11,51,14.60
2007,05,17,11,52,14.70
2007,05,17,11,53,14.60
2007,05,17,11,54,14.60
2007,05,17,11,55,14.60
2007,05,17,11,56,14.50
2007,05,17,11,57,14.50
2007,05,17,11,58,14.50
2007,05,17,11,59,14.50
2007,05,17,12,00,14.50
2007,05,17,12,01,14.50
2007,05,17,12,02,14.60
2007,05,17,12,03,14.70
2007,05,17,12,04,14.80
2007,05,17,12,05,14.90
2007,05,17,12,06,15.00
2007,05,17,12,07,15.10
2007,05,17,12,08,15.20
2007,05,17,12,09,15.30
2007,05,17,12,10,15.20
2007,05,17,12,11,15.20
2007,05,17,12,12,15.30
2007,05,17,12,13,15.30
2007,05,17,12,14,15.30
2007,05,17,12,15,15.40
2007,05,17,12,16,15.50
2007,05,17,12,17,15.60
2007,05,17,12,18,15.80
2007,05,17,12,19,15.80
2007,05,17,12,20,15.90
2007,05,17,12,21,16.10
2007,05,17,12,22,16.20
2007,05,17,12,23,16.40
2007,05,17,12,24,16.40
2007,05,17,12,25,16.60
2007,05,17,12,26,16.70
2007,05,17,12,27,16.70
2007,05,17,12,28,16.70
2007,05,17,12,29,16.80
2007,05,17,12,30,16.90
2007,05,17,12,31,16.90
2007,05,17,12,32,16.90
2007,05,17,12,33,16.80
2007,05,17,12,34,16.80
2007,05,17,12,35,16.80
2007,05,17,12,36,16.80
2007,05,17,12,37,16.70
2007,05,17,12,38,16.70
2007,05,17,12,40,16.80
2007,05,17,12,41,16.80
2007,05,17,12,42,16.90
2007,05,17,12,43,17.00
2007,05,17,12,44,17.10
2007,05,17,12,45,17.20
2007,05,17,12,46,17.30
2007,05,17,12,47,17.20
2007,05,17,12,48,17.00
2007,05,17,12,49,16.80
2007,05,17,12,50,16.70
2007,05,17,12,51,16.40
2007,05,17,12,52,16.30
2007,05,17,12,53,16.30
2007,05,17,12,54,16.40
2007,05,17,12,55,16.40
2007,05,17,12,56,16.60
2007,05,17,12,57,16.70
2007,05,17,12,58,16.80
2007,05,17,12,59,17.00
2007,05,17,13,00,17.20
2007,05,17,13,01,17.40
2007,05,17,13,02,17.60
2007,05,17,13,03,17.90
2007,05,17,13,04,18.10
2007,05,17,13,05,18.20
2007,05,17,13,06,18.20
2007,05,17,13,07,18.30
2007,05,17,13,08,18.40
2007,05,17,13,09,18.50
2007,05,17,13,10,18.50
2007,05,17,13,11,18.50
2007,05,17,13,12,18.50
2007,05,17,13,13,18.50
2007,05,17,13,14,18.50
2007,05,17,13,15,18.50
2007,05,17,13,16,18.50
2007,05,17,13,17,18.50
2007,05,17,13,18,18.50
2007,05,17,13,19,18.50
2007,05,17,13,20,18.50
2007,05,17,13,21,18.60
2007,05,17,13,22,18.70
2007,05,17,13,23,18.70
2007,05,17,13,24,18.70
2007,05,17,13,25,18.70
2007,05,17,13,26,18.70
2007,05,17,13,27,18.70
2007,05,17,13,28,18.60
2007,05,17,13,29,18.50
2007,05,17,13,30,18.50
2007,05,17,13,31,18.40
2007,05,17,13,32,18.30
2007,05,17,13,33,18.30
2007,05,17,13,34,18.20
2007,05,17,13,35,18.30
2007,05,17,13,36,18.30
2007,05,17,13,37,18.30
2007,05,17,13,38,18.40
2007,05,17,13,39,18.50
2007,05,17,13,40,18.60
2007,05,17,13,41,18.70
2007,05,17,13,42,18.80
2007,05,17,13,43,18.90
2007,05,17,13,44,18.90
2007,05,17,13,45,19.10
2007,05,17,13,46,19.10
2007,05,17,13,47,19.10
2007,05,17,13,48,19.20
2007,05,17,13,49,19.20
2007,05,17,13,50,19.20
2007,05,17,13,51,19.20
2007,05,17,13,52,19.10
2007,05,17,13,53,19.10
2007,05,17,13,54,18.90
2007,05,17,13,55,18.90
2007,05,17,13,56,18.80
2007,05,17,13,57,18.80
2007,05,17,13,58,18.70
2007,05,17,13,59,18.70
2007,05,17,14,00,18.60
2007,05,17,14,01,18.60
2007,05,17,14,02,18.60
2007,05,17,14,03,18.60
2007,05,17,14,04,18.50
2007,05,17,14,05,18.50
2007,05,17,14,06,18.50
2007,05,17,14,07,18.50
2007,05,17,14,08,18.60
2007,05,17,14,09,18.60
2007,05,17,14,10,18.70
2007,05,17,14,11,18.70
2007,05,17,14,12,18.80
2007,05,17,14,13,18.90
2007,05,17,14,14,18.90
2007,05,17,14,15,19.10
2007,05,17,14,16,19.10
2007,05,17,14,17,19.10
2007,05,17,14,18,19.10
2007,05,17,14,19,19.10
2007,05,17,14,20,19.10
2007,05,17,14,21,19.20
2007,05,17,14,22,19.30
2007,05,17,14,23,19.40
2007,05,17,14,24,19.60
2007,05,17,14,25,19.70
2007,05,17,14,26,19.90
2007,05,17,14,27,19.90
2007,05,17,14,28,20.10
2007,05,17,14,29,20.20
2007,05,17,14,30,20.20
2007,05,17,14,31,20.30
2007,05,17,14,32,20.30
2007,05,17,14,33,20.40
2007,05,17,14,34,20.40
2007,05,17,14,35,20.50
2007,05,17,14,36,20.50
2007,05,17,14,37,20.50
2007,05,17,14,38,20.50
2007,05,17,14,39,20.50
2007,05,17,14,40,20.50
2007,05,17,14,41,20.50
2007,05,17,14,42,20.60
2007,05,17,14,43,20.60
2007,05,17,14,44,20.60
2007,05,17,14,45,20.60
2007,05,17,14,46,20.50
2007,05,17,14,47,20.50
2007,05,17,14,48,20.50
2007,05,17,14,49,20.50
2007,05,17,14,50,20.40
2007,05,17,14,51,20.40
2007,05,17,14,52,20.40
2007,05,17,14,53,20.30
2007,05,17,14,54,20.20
2007,05,17,14,55,20.20
2007,05,17,14,56,20.10
2007,05,17,14,57,19.90
2007,05,17,14,58,19.80
2007,05,17,14,59,19.70
2007,05,17,15,00,19.50
2007,05,17,15,01,19.40
2007,05,17,15,02,19.30
2007,05,17,15,03,19.10
2007,05,17,15,04,19.10
2007,05,17,15,05,18.90
2007,05,17,15,06,18.70
2007,05,17,15,07,18.50
2007,05,17,15,08,18.40
2007,05,17,15,09,18.30
2007,05,17,15,10,18.30
2007,05,17,15,11,18.20
2007,05,17,15,12,18.20
2007,05,17,15,13,18.20
2007,05,17,15,14,18.20
2007,05,17,15,15,18.10
2007,05,17,15,16,17.90
2007,05,17,15,18,17.90
2007,05,17,15,19,17.80
2007,05,17,15,20,17.80
2007,05,17,15,21,17.80
2007,05,17,15,22,17.80
2007,05,17,15,23,17.90
2007,05,17,15,24,17.90
2007,05,17,15,25,17.90
2007,05,17,15,26,18.10
2007,05,17,15,27,18.10
2007,05,17,15,28,17.90
2007,05,17,15,29,17.90
2007,05,17,15,30,17.90
2007,05,17,15,31,17.90
2007,05,17,15,32,17.80
2007,05,17,15,33,17.80
2007,05,17,15,34,17.70
2007,05,17,15,35,17.60
2007,05,17,15,36,17.60
2007,05,17,15,37,17.50
2007,05,17,15,38,17.50
2007,05,17,15,39,17.40
2007,05,17,15,40,17.40
2007,05,17,15,41,17.40
2007,05,17,15,42,17.40
2007,05,17,15,43,17.50
2007,05,17,15,44,17.70
2007,05,17,15,45,17.80
2007,05,17,15,46,17.90
2007,05,17,15,47,18.20
2007,05,17,15,48,18.20
2007,05,17,15,49,18.30
2007,05,17,15,50,18.40
2007,05,17,15,51,18.60
2007,05,17,15,52,18.60
2007,05,17,15,53,18.70
2007,05,17,15,54,18.80
2007,05,17,15,55,18.80
2007,05,17,15,56,18.90
2007,05,17,15,57,18.90
2007,05,17,15,58,18.90
2007,05,17,15,59,18.90
2007,05,17,16,00,18.90
2007,05,17,16,01,18.90
2007,05,17,16,02,19.10
2007,05,17,16,03,19.10
2007,05,17,16,04,19.20
2007,05,17,16,05,19.30
2007,05,17,16,06,19.40
2007,05,17,16,07,19.50
2007,05,17,16,08,19.60
2007,05,17,16,09,19.70
2007,05,17,16,10,19.70
2007,05,17,16,11,19.80
2007,05,17,16,12,19.90
2007,05,17,16,13,19.90
2007,05,17,16,14,19.90
2007,05,17,16,15,20.10
2007,05,17,16,16,20.20
2007,05,17,16,17,20.20
2007,05,17,16,18,20.30
2007,05,17,16,19,20.40
2007,05,17,16,20,20.50
2007,05,17,16,21,20.50
2007,05,17,16,22,20.50
2007,05,17,16,23,20.50
2007,05,17,16,24,20.50
2007,05,17,16,25,20.60
2007,05,17,16,26,20.60
2007,05,17,16,27,20.70
2007,05,17,16,28,20.70
2007,05,17,16,29,20.80
2007,05,17,16,30,20.80
2007,05,17,16,31,20.80
2007,05,17,16,32,20.80
2007,05,17,16,33,20.80
2007,05,17,16,34,20.70
2007,05,17,16,35,20.70
2007,05,17,16,36,20.70
2007,05,17,16,37,20.70
2007,05,17,16,38,20.80
2007,05,17,16,39,20.80
2007,05,17,16,40,20.80
2007,05,17,16,41,20.90
2007,05,17,16,42,20.90
2007,05,17,16,43,20.90
2007,05,17,16,44,20.80
2007,05,17,16,45,20.70
2007,05,17,16,46,20.60
2007,05,17,16,47,20.60
2007,05,17,16,48,20.60
2007,05,17,16,49,20.60
2007,05,17,16,50,20.60
2007,05,17,16,51,20.60
2007,05,17,16,52,20.60
2007,05,17,16,53,20.60
2007,05,17,16,54,20.60
2007,05,17,16,55,20.60
2007,05,17,16,56,20.60
2007,05,17,16,57,20.60
2007,05,17,16,58,20.70
2007,05,17,16,59,20.70
2007,05,17,17,00,20.70
2007,05,17,17,01,20.80
2007,05,17,17,02,20.80
2007,05,17,17,03,20.80
2007,05,17,17,04,20.80
2007,05,17,17,05,20.70
2007,05,17,17,06,20.70
2007,05,17,17,07,20.70
2007,05,17,17,08,20.70
2007,05,17,17,09,20.60
2007,05,17,17,10,20.60
2007,05,17,17,11,20.60
2007,05,17,17,12,20.50
2007,05,17,17,13,20.40
2007,05,17,17,14,20.30
2007,05,17,17,15,20.20
2007,05,17,17,16,20.10
2007,05,17,17,17,19.90
2007,05,17,17,18,19.90
2007,05,17,17,19,19.90
2007,05,17,17,20,19.90
2007,05,17,17,21,19.80
2007,05,17,17,22,19.80
2007,05,17,17,23,19.90
2007,05,17,17,24,19.90
2007,05,17,17,25,19.90
2007,05,17,17,26,20.10
2007,05,17,17,27,20.20
2007,05,17,17,28,20.20
2007,05,17,17,29,20.20
2007,05,17,17,30,20.30
2007,05,17,17,31,20.40
2007,05,17,17,32,20.40
2007,05,17,17,33,20.40
2007,05,17,17,34,20.40
2007,05,17,17,35,20.40
2007,05,17,17,36,20.40
2007,05,17,17,37,20.40
2007,05,17,17,38,20.40
2007,05,17,17,39,20.40
2007,05,17,17,40,20.40
2007,05,17,17,41,20.40
2007,05,17,17,42,20.40
2007,05,17,17,43,20.30
2007,05,17,17,44,20.20
2007,05,17,17,45,20.20
2007,05,17,17,46,20.10
2007,05,17,17,47,19.90
2007,05,17,17,48,19.90
2007,05,17,17,49,19.80
2007,05,17,17,50,19.70
2007,05,17,17,51,19.50
2007,05,17,17,52,19.20
2007,05,17,17,53,19.10
2007,05,17,17,54,18.90
2007,05,17,17,55,18.90
2007,05,17,17,56,18.80
2007,05,17,17,57,18.70
2007,05,17,17,58,18.60
2007,05,17,17,59,18.40
2007,05,17,18,00,18.30
2007,05,17,18,01,18.20
2007,05,17,18,02,18.20
2007,05,17,18,03,17.90
2007,05,17,18,04,17.80
2007,05,17,18,05,17.60
2007,05,17,18,06,17.50
2007,05,17,18,07,17.40
2007,05,17,18,08,17.30
2007,05,17,18,09,17.30
2007,05,17,18,10,17.30
2007,05,17,18,11,17.20
2007,05,17,18,12,17.20
2007,05,17,18,13,17.20
2007,05,17,18,14,17.20
2007,05,17,18,15,17.20
2007,05,17,18,16,17.20
2007,05,17,18,17,17.20
2007,05,17,18,18,17.20
2007,05,17,18,19,17.20
2007,05,17,18,20,17.20
2007,05,17,18,21,17.20
2007,05,17,18,22,17.30
2007,05,17,18,23,17.30
2007,05,17,18,24,17.30
2007,05,17,18,25,17.30
2007,05,17,18,26,17.30
2007,05,17,18,27,17.30
2007,05,17,18,28,17.30
2007,05,17,18,29,17.30
2007,05,17,18,30,17.30
2007,05,17,18,31,17.30
2007,05,17,18,32,17.30
2007,05,17,18,33,17.30
2007,05,17,18,34,17.20
2007,05,17,18,35,17.10
2007,05,17,18,36,17.00
2007,05,17,18,37,17.00
2007,05,17,18,38,16.90
2007,05,17,18,39,16.80
2007,05,17,18,40,16.70
2007,05,17,18,41,16.70
2007,05,17,18,42,16.70
2007,05,17,18,43,16.70
2007,05,17,18,44,16.70
2007,05,17,18,45,16.80
2007,05,17,18,46,16.90
2007,05,17,18,47,16.90
2007,05,17,18,48,17.00
2007,05,17,18,49,16.90
2007,05,17,18,50,16.90
2007,05,17,18,51,16.80
2007,05,17,18,52,16.70
2007,05,17,18,53,16.70
2007,05,17,18,54,16.70
2007,05,17,18,55,16.70
2007,05,17,18,56,16.70
2007,05,17,18,57,16.70
2007,05,17,18,58,16.70
2007,05,17,18,59,16.80
2007,05,17,19,00,16.80
2007,05,17,19,01,16.90
2007,05,17,19,02,16.90
2007,05,17,19,03,17.00
2007,05,17,19,04,17.00
2007,05,17,19,05,17.10
2007,05,17,19,06,17.10
2007,05,17,19,07,17.20
2007,05,17,19,08,17.20
2007,05,17,19,09,17.20
2007,05,17,19,10,17.20
2007,05,17,19,11,17.20
2007,05,17,19,12,17.20
2007,05,17,19,13,17.20
2007,05,17,19,14,17.20
2007,05,17,19,15,17.30
2007,05,17,19,16,17.30
2007,05,17,19,17,17.30
2007,05,17,19,18,17.30
2007,05,17,19,19,17.30
2007,05,17,19,20,17.20
2007,05,17,19,21,17.10
2007,05,17,19,22,17.00
2007,05,17,19,23,17.00
2007,05,17,19,24,16.90
2007,05,17,19,25,16.80
2007,05,17,19,26,16.80
2007,05,17,19,27,16.70
2007,05,17,19,28,16.70
2007,05,17,19,29,16.70
2007,05,17,19,30,16.70
2007,05,17,19,31,16.70
2007,05,17,19,32,16.60
2007,05,17,19,33,16.60
2007,05,17,19,34,16.60
2007,05,17,19,35,16.40
2007,05,17,19,36,16.40
2007,05,17,19,37,16.40
2007,05,17,19,38,16.40
2007,05,17,19,39,16.30
2007,05,17,19,40,16.30
2007,05,17,19,41,16.20
2007,05,17,19,42,16.20
2007,05,17,19,43,16.10
2007,05,17,19,44,16.10
2007,05,17,19,45,16.10
2007,05,17,19,46,16.10
2007,05,17,19,47,16.10
2007,05,17,19,48,15.90
2007,05,17,19,49,15.80
2007,05,17,19,50,15.80
2007,05,17,19,51,15.80
2007,05,17,19,52,15.80
2007,05,17,19,53,15.70
2007,05,17,19,54,15.60
2007,05,17,19,55,15.60
2007,05,17,19,56,15.50
2007,05,17,19,57,15.40
2007,05,17,19,58,15.30
2007,05,17,19,59,15.30
2007,05,17,20,00,15.30
2007,05,17,20,01,15.20
2007,05,17,20,02,15.10
2007,05,17,20,03,15.10
2007,05,17,20,04,15.00
2007,05,17,20,05,15.00
2007,05,17,20,06,14.90
2007,05,17,20,07,14.80
2007,05,17,20,08,14.80
2007,05,17,20,09,14.80
2007,05,17,20,10,14.70
2007,05,17,20,11,14.70
2007,05,17,20,12,14.60
2007,05,17,20,13,14.60
2007,05,17,20,14,14.50
2007,05,17,20,15,14.50
2007,05,17,20,16,14.50
2007,05,17,20,17,14.50
2007,05,17,20,18,14.40
2007,05,17,20,19,14.40
2007,05,17,20,20,14.40
2007,05,17,20,21,14.30
2007,05,17,20,22,14.30
2007,05,17,20,23,14.20
2007,05,17,20,24,14.20
2007,05,17,20,25,14.20
2007,05,17,20,26,14.20
2007,05,17,20,27,14.10
2007,05,17,20,28,14.10
2007,05,17,20,29,14.00
2007,05,17,20,30,14.00
2007,05,17,20,31,14.00
2007,05,17,20,32,13.90
2007,05,17,20,33,13.90
2007,05,17,20,34,13.80
2007,05,17,20,35,13.80
2007,05,17,20,36,13.70
2007,05,17,20,37,13.70
2007,05,17,20,38,13.70
2007,05,17,20,39,13.70
2007,05,17,20,40,13.60
2007,05,17,20,41,13.60
2007,05,17,20,42,13.60
2007,05,17,20,43,13.50
2007,05,17,20,44,13.40
2007,05,17,20,45,13.40
2007,05,17,20,46,13.30
2007,05,17,20,47,13.30
2007,05,17,20,48,13.30
2007,05,17,20,49,13.30
2007,05,17,20,50,13.20
2007,05,17,20,51,13.20
2007,05,17,20,52,13.10
2007,05,17,20,53,13.00
2007,05,17,20,54,12.90
2007,05,17,20,55,12.90
2007,05,17,20,56,12.80
2007,05,17,20,57,12.80
2007,05,17,20,58,12.70
2007,05,17,20,59,12.60
2007,05,17,21,00,12.50
2007,05,17,21,01,12.40
2007,05,17,21,02,12.40
2007,05,17,21,03,12.30
2007,05,17,21,04,12.30
2007,05,17,21,05,12.30
2007,05,17,21,06,12.20
2007,05,17,21,07,12.20
2007,05,17,21,08,12.10
2007,05,17,21,09,12.00
2007,05,17,21,10,12.00
2007,05,17,21,11,11.90
2007,05,17,21,12,11.80
2007,05,17,21,13,11.80
2007,05,17,21,14,11.80
2007,05,17,21,15,11.80
2007,05,17,21,16,11.70
2007,05,17,21,17,11.70
2007,05,17,21,18,11.60
2007,05,17,21,19,11.60
2007,05,17,21,20,11.60
2007,05,17,21,21,11.60
2007,05,17,21,22,11.60
2007,05,17,21,23,11.60
2007,05,17,21,24,11.60
2007,05,17,21,25,11.40
2007,05,17,21,26,11.40
2007,05,17,21,27,11.40
2007,05,17,21,28,11.40
2007,05,17,21,29,11.40
2007,05,17,21,30,11.40
2007,05,17,21,31,11.40
2007,05,17,21,32,11.40
2007,05,17,21,33,11.40
2007,05,17,21,34,11.40
2007,05,17,21,35,11.30
2007,05,17,21,36,11.30
2007,05,17,21,37,11.30
2007,05,17,21,38,11.30
2007,05,17,21,39,11.30
2007,05,17,21,40,11.30
2007,05,17,21,41,11.30
2007,05,17,21,42,11.20
2007,05,17,21,43,11.20
2007,05,17,21,44,11.20
2007,05,17,21,45,11.20
2007,05,17,21,46,11.20
2007,05,17,21,47,11.10
2007,05,17,21,48,11.10
2007,05,17,21,49,11.10
2007,05,17,21,50,11.10
2007,05,17,21,51,11.10
2007,05,17,21,52,11.10
2007,05,17,21,53,11.10
2007,05,17,21,54,11.10
2007,05,17,21,55,11.10
2007,05,17,21,56,11.10
2007,05,17,21,57,11.10
2007,05,17,21,58,10.90
2007,05,17,21,59,10.90
2007,05,17,22,00,10.90
2007,05,17,22,01,10.90
2007,05,17,22,02,10.90
2007,05,17,22,03,10.90
2007,05,17,22,04,10.80
2007,05,17,22,05,10.80
2007,05,17,22,06,10.70
2007,05,17,22,07,10.70
2007,05,17,22,08,10.70
2007,05,17,22,09,10.60
2007,05,17,22,10,10.60
2007,05,17,22,11,10.60
2007,05,17,22,12,10.60
2007,05,17,22,13,10.60
2007,05,17,22,14,10.40
2007,05,17,22,15,10.40
2007,05,17,22,16,10.40
2007,05,17,22,17,10.40
2007,05,17,22,18,10.40
2007,05,17,22,19,10.40
2007,05,17,22,20,10.30
2007,05,17,22,21,10.30
2007,05,17,22,22,10.30
2007,05,17,22,23,10.30
2007,05,17,22,24,10.20
2007,05,17,22,25,10.20
2007,05,17,22,26,10.10
2007,05,17,22,27,10.10
2007,05,17,22,28,10.10
2007,05,17,22,29,10.10
2007,05,17,22,30,10.10
2007,05,17,22,31,10.10
2007,05,17,22,32,10.10
2007,05,17,22,33,9.90
2007,05,17,22,34,9.90
2007,05,17,22,35,9.90
2007,05,17,22,36,9.90
2007,05,17,22,37,9.90
2007,05,17,22,38,9.90
2007,05,17,22,39,9.90
2007,05,17,22,40,9.90
2007,05,17,22,41,9.80
2007,05,17,22,42,9.80
2007,05,17,22,43,9.80
2007,05,17,22,44,9.80
2007,05,17,22,45,9.80
2007,05,17,22,46,9.70
2007,05,17,22,47,9.70
2007,05,17,22,48,9.70
2007,05,17,22,49,9.70
2007,05,17,22,50,9.70
2007,05,17,22,51,9.70
2007,05,17,22,52,9.70
2007,05,17,22,53,9.70
2007,05,17,22,54,9.70
2007,05,17,22,55,9.60
2007,05,17,22,56,9.60
2007,05,17,22,57,9.60
2007,05,17,22,58,9.60
2007,05,17,22,59,9.50
2007,05,17,23,00,9.50
2007,05,17,23,01,9.50
2007,05,17,23,02,9.40
2007,05,17,23,03,9.40
2007,05,17,23,04,9.40
2007,05,17,23,05,9.40
2007,05,17,23,06,9.40
2007,05,17,23,07,9.30
2007,05,17,23,08,9.30
2007,05,17,23,09,9.30
2007,05,17,23,10,9.20
2007,05,17,23,11,9.20
2007,05,17,23,12,9.20
2007,05,17,23,13,9.20
2007,05,17,23,14,9.20
2007,05,17,23,15,9.20
2007,05,17,23,16,9.20
2007,05,17,23,17,9.20
2007,05,17,23,18,9.20
2007,05,17,23,19,9.20
2007,05,17,23,20,9.20
2007,05,17,23,21,9.10
2007,05,17,23,22,9.10
2007,05,17,23,23,9.10
2007,05,17,23,24,9.10
2007,05,17,23,25,9.10
2007,05,17,23,26,9.10
2007,05,17,23,27,9.10
2007,05,17,23,28,9.00
2007,05,17,23,29,9.00
2007,05,17,23,30,9.00
2007,05,17,23,31,9.00
2007,05,17,23,32,9.00
2007,05,17,23,33,9.00
2007,05,17,23,34,9.00
2007,05,17,23,35,9.00
2007,05,17,23,36,9.00
2007,05,17,23,37,9.00
2007,05,17,23,38,9.00
2007,05,17,23,39,9.00
2007,05,17,23,40,9.00
2007,05,17,23,41,9.00
2007,05,17,23,42,9.00
2007,05,17,23,43,9.00
2007,05,17,23,44,9.00
2007,05,17,23,45,9.00
2007,05,17,23,46,9.00
2007,05,17,23,47,9.00
2007,05,17,23,48,9.00
2007,05,17,23,49,9.00
2007,05,17,23,50,9.00
2007,05,17,23,51,9.00
2007,05,17,23,52,9.00
2007,05,17,23,53,9.00
2007,05,17,23,54,9.00
2007,05,17,23,55,9.00
2007,05,17,23,56,9.00
2007,05,17,23,57,9.00
2007,05,17,23,58,9.00
2007,05,17,23,59,9.00
